This is the latest recevied weather packets stored in our database for station/object EA4BHK-10. If no packets are shown the sender has not sent any weather packets the latest 10 day(s).
| Time | Temp. | Humidity | Pressure | Rain* | Wind** | Luminosity | Snow |
|---|---|---|---|---|---|---|---|
| 1787864875 | 18.89° C | 41% | 1018.2 hPa | - | - | - | - |
| 1787863975 | 19.44° C | 40% | 1018 hPa | - | - | - | - |
| 1787863075 | 19.44° C | 39% | 1017.8 hPa | - | - | - | - |
| 1787862175 | 19.44° C | 39% | 1017.3 hPa | - | - | - | - |
| 1787861275 | 20° C | 39% | 1017.1 hPa | - | - | - | - |
| 1787860376 | 19.44° C | 38% | 1016.7 hPa | - | - | - | - |
| 1787859462 | 20° C | 38% | 1016.5 hPa | - | - | - | - |
| 1787858562 | 20° C | 38% | 1016.1 hPa | - | - | - | - |
| 1787857662 | 20.56° C | 37% | 1015.8 hPa | - | - | - | - |
| 1787856762 | 20.56° C | 37% | 1015.4 hPa | - | - | - | - |
| 1787855863 | 20.56° C | 36% | 1015.5 hPa | - | - | - | - |
| 1787854962 | 20.56° C | 35% | 1015.2 hPa | - | - | - | - |
| 1787854062 | 21.11° C | 34% | 1015 hPa | - | - | - | - |
| 1787853162 | 20.56° C | 34% | 1015.2 hPa | - | - | - | - |
| 1787852262 | 21.11° C | 33% | 1015.2 hPa | - | - | - | - |
| 1787851362 | 21.11° C | 32% | 1015.1 hPa | - | - | - | - |
| 1787850462 | 21.67° C | 31% | 1014.9 hPa | - | - | - | - |
| 1787849567 | 21.67° C | 32% | 1014.8 hPa | - | - | - | - |
| 1787848662 | 21.67° C | 30% | 1014.8 hPa | - | - | - | - |
| 1787847762 | 21.67° C | 31% | 1014.6 hPa | - | - | - | - |
| 1787846862 | 22.22° C | 31% | 1014.6 hPa | - | - | - | - |
| 1787845962 | 22.22° C | 31% | 1014.6 hPa | - | - | - | - |
| 1787845062 | 22.78° C | 30% | 1014.2 hPa | - | - | - | - |
| 1787844162 | 22.78° C | 31% | 1014.2 hPa | - | - | - | - |
| 1787843262 | 22.78° C | 31% | 1013.8 hPa | - | - | - | - |
* Rain since midnight (hover to see other rain measurements)
** Current wind speed in m/s (hover to see current wind gust speed)